This is the latest recevied weather packets stored in our database for station/object W5DNT. If no packets are shown the sender has not sent any weather packets the latest 1 day(s).
| Time | Temp. | Humidity | Pressure | Rain* | Wind** | Luminosity | Snow |
|---|---|---|---|---|---|---|---|
| 1778006752 | 29.44° C | 67% | 1005.3 hPa | 0 mm | 0 m/s | - | - |
| 1778005848 | 28.89° C | 68% | 1005.5 hPa | 0 mm | 0 m/s | - | - |
| 1778004950 | 28.89° C | 68% | 1005.6 hPa | 0 mm | 0.45 m/s, 155° | - | - |
| 1778004043 | 28.33° C | 70% | 1005.6 hPa | 0 mm | 0.45 m/s, 188° | - | - |
| 1778003144 | 27.78° C | 71% | 1005.9 hPa | 0 mm | 0.45 m/s, 221° | - | - |
| 1778002237 | 27.22° C | 71% | 1006 hPa | 0 mm | 0.89 m/s, 159° | - | - |
| 1778001336 | 26.67° C | 73% | 1006 hPa | 0 mm | 0 m/s | - | - |
| 1778000432 | 26.67° C | 73% | 1006 hPa | 0 mm | 0 m/s | - | - |
| 1777999532 | 26.67° C | 74% | 1006.1 hPa | 0 mm | 0 m/s | - | - |
| 1777998631 | 26.67° C | 74% | 1006.1 hPa | 0 mm | 0 m/s | - | - |
| 1777997729 | 26.11° C | 76% | 1006 hPa | 0 mm | 0 m/s | - | - |
| 1777996827 | 25.56° C | 77% | 1006.2 hPa | 0 mm | 0 m/s | - | - |
| 1777995921 | 25° C | 79% | 1006.3 hPa | 0 mm | 0.45 m/s, 168° | - | - |
| 1777995018 | 24.44° C | 79% | 1006.3 hPa | 0 mm | 0 m/s | - | - |
| 1777994116 | 23.89° C | 80% | 1006.4 hPa | 0 mm | 0 m/s | - | - |
| 1777993211 | 23.89° C | 80% | 1006.2 hPa | 0 mm | 0.45 m/s, 194° | - | - |
| 1777992308 | 23.33° C | 81% | 1006.2 hPa | 0 mm | 0 m/s | - | - |
| 1777991404 | 22.78° C | 83% | 1006.1 hPa | 0 mm | 0 m/s | - | - |
| 1777990501 | 22.22° C | 84% | 1006.1 hPa | 0 mm | 0 m/s | - | - |
| 1777989601 | 21.67° C | 85% | 1006.1 hPa | 0 mm | 0 m/s | - | - |
| 1777988760 | 21.67° C | 85% | 1006 hPa | 0 mm | 0 m/s | - | - |
| 1777987859 | 21.11° C | 85% | 1005.8 hPa | 0 mm | 0 m/s | - | - |
| 1777986972 | 20.56° C | 85% | 1005.6 hPa | 0 mm | 0 m/s | - | - |
| 1777986071 | 20.56° C | 86% | 1005.6 hPa | 0 mm | 0 m/s | - | - |
| 1777982446 | 20° C | 85% | 1004.9 hPa | 0 mm | 0 m/s | - | - |
* Rain latest hour (hover to see other rain measurements)
** Current wind speed in m/s (hover to see current wind gust speed)